Alliance, NE

11:30 AM MDT on October 19, 2017 (GMT -0600)
Alliance Municipal

Weather History for KAIA - June, 2013

Change the Weather History Date:

Wednesday, June 19, 2013

  Actual Average Record
Temperature  
Mean Temperature 69 °F 66 °F  
Max Temperature 84 °F 81 °F 100 °F (1910)
Min Temperature 53 °F 51 °F 33 °F (1912)
Degree Days  
Heating Degree Days 0 2  
Month to date heating degree days 62 77  
Since 1 June heating degree days 62 77  
Since 1 July heating degree days 7190 7292  
Cooling Degree Days 4 3  
Month to date cooling degree days 56 39  
Year to date cooling degree days 78 49  
Since 1 June cooling degree days 56 39  
Growing Degree Days 18 (Base 50)    
Moisture  
Dew Point 58 °F    
Average Humidity 72    
Maximum Humidity 93    
Minimum Humidity 51    
Precipitation  
Precipitation 0.00 in 0.08 in 0.95 in (1991)
Month to date precipitation 0.40 1.93  
Year to date precipitation 5.72 7.44  
Sea Level Pressure  
Sea Level Pressure 29.75 in    
Wind  
Wind Speed 20 mph (SSE)    
Max Wind Speed 33 mph    
Max Gust Speed 43 mph    
Visibility 10 miles    
Events Rain , Thunderstorm    
T = Trace of Precipitation, MM = Missing Value Source: NWS Daily Summary

Daily Weather History Graph

Daily Weather History Graph

Search for Another Location

Airport or City:

Trip Planner

Search our weather history database for the weather conditions in past years. The results will help you decide how hot, cold, wet, or windy it might be!

Date:

Astronomy

Jun. 19, 2013 Rise Set
Actual Time 5:15 AM MDT 8:30 PM MDT
Civil Twilight 4:40 AM MDT 9:04 PM MDT
Nautical Twilight 3:56 AM MDT 9:49 PM MDT
Astronomical Twilight 3:02 AM MDT 10:43 PM MDT
Moon 4:22 PM MDT 2:04 AM MDT
Length of Visible Light 16h 23m
Length of Day
15h 14m
Waxing Gibbous, 81% of the Moon is Illuminated
Jun 19
Waxing Gibbous
Jun 23
Full
Jun 29
Last Quarter
Jul 8
New
Jul 15
First Quarter

Hourly Weather History & Observations

Time (MDT) Temp. Heat Index Dew Point Humidity Pressure Visibility Wind Dir Wind Speed Gust Speed Precip Events Conditions
12:53 AM 61.0 °F - 55.0 °F 81% 29.85 in 10.0 mi SE 19.6 mph 26.5 mph N/A Rain , Thunderstorm Light Thunderstorms and Rain
12:56 AM 60.8 °F - 55.4 °F 82% 29.97 in 10.0 mi SE 15.0 mph 26.5 mph N/A Rain , Thunderstorm Light Rain
1:17 AM 59.0 °F - 55.4 °F 88% 29.97 in 10.0 mi SSE 11.5 mph - N/A   Clear
1:53 AM 59.0 °F - 54.0 °F 83% 29.82 in 10.0 mi SE 13.8 mph - N/A   Clear
2:53 AM 59.0 °F - 54.0 °F 83% 29.81 in 10.0 mi SE 15.0 mph 23.0 mph N/A   Clear
3:35 AM 57.2 °F - 55.4 °F 94% 29.95 in 10.0 mi South 11.5 mph 21.9 mph N/A   Clear
3:53 AM 57.0 °F - 54.0 °F 89% 29.82 in 10.0 mi South 8.1 mph - N/A   Clear
4:53 AM 55.9 °F - 54.0 °F 93% 29.82 in 10.0 mi South 9.2 mph - N/A   Clear
5:53 AM 54.0 °F - 52.0 °F 93% 29.83 in 10.0 mi Calm Calm - N/A   Clear
6:53 AM 59.0 °F - 55.9 °F 90% 29.81 in 10.0 mi SE 9.2 mph - N/A   Clear
7:53 AM 64.0 °F - 55.0 °F 73% 29.80 in 10.0 mi SSE 16.1 mph - N/A   Clear
8:53 AM 68.0 °F - 55.9 °F 65% 29.81 in 10.0 mi SSE 19.6 mph 25.3 mph N/A   Clear
9:53 AM 70.0 °F - 57.0 °F 63% 29.78 in 10.0 mi SSE 19.6 mph 25.3 mph N/A   Clear
10:53 AM 73.0 °F - 59.0 °F 61% 29.76 in 10.0 mi SSE 20.7 mph 29.9 mph N/A   Clear
11:53 AM 75.9 °F - 60.1 °F 58% 29.74 in 10.0 mi SE 20.7 mph 29.9 mph N/A   Scattered Clouds
12:53 PM 78.1 °F - 61.0 °F 56% 29.70 in 10.0 mi SSE 21.9 mph 33.4 mph N/A   Scattered Clouds
1:53 PM 81.0 °F 81.9 °F 62.1 °F 52% 29.68 in 10.0 mi SSE 25.3 mph 32.2 mph N/A   Partly Cloudy
2:53 PM 82.9 °F 83.7 °F 62.1 °F 49% 29.67 in 10.0 mi SSE 25.3 mph 35.7 mph N/A   Clear
3:53 PM 82.9 °F 84.0 °F 63.0 °F 51% 29.65 in 10.0 mi SE 28.8 mph 38.0 mph N/A   Clear
4:53 PM 82.9 °F 84.0 °F 63.0 °F 51% 29.61 in 10.0 mi SSE 31.1 mph 42.6 mph N/A   Clear
5:53 PM 82.0 °F 83.1 °F 63.0 °F 52% 29.61 in 10.0 mi SE 29.9 mph 36.8 mph N/A   Clear
6:53 PM 81.0 °F 81.7 °F 61.0 °F 50% 29.60 in 10.0 mi SSE 24.2 mph 38.0 mph N/A   Clear
7:53 PM 77.0 °F - 61.0 °F 58% 29.60 in 10.0 mi SSE 21.9 mph 33.4 mph N/A   Clear
8:53 PM 75.0 °F - 62.1 °F 64% 29.61 in 10.0 mi SSE 20.7 mph 33.4 mph N/A   Clear
9:53 PM 73.0 °F - 61.0 °F 66% 29.63 in 10.0 mi SSE 21.9 mph 31.1 mph N/A   Clear
10:53 PM 71.1 °F - 59.0 °F 66% 29.62 in 10.0 mi SSE 26.5 mph 34.5 mph N/A   Clear
11:53 PM 71.1 °F - 59.0 °F 66% 29.60 in 10.0 mi SSE 31.1 mph 41.4 mph N/A   Clear